Flag for Turkey Weather past 2 weeks in Istanbul, Turkey

Now
52 °F

Passing clouds.


Feels Like: 50 °F
Forecast: 50 / 56 °F
Wind: 6 mph from Southwest

Location: Istanbul Ataturk Airport

Current Time: Dec 19, 2014 at 3:54:38 PM

Latest Report: Dec 19, 2014 at 3:20 PM


Visibility: N/A

Pressure: 30.18 "Hg

Humidity: 82%

Dew point: 46 °F

Location of IstanbulLocation

Historic Weather in Istanbul — Graph

°F

Istanbul temperature yesterday

Maximum temperature yesterday: 57 °F (at 12:20 PM)
Minimum temperature yesterday: 50 °F (at 5:50 PM)
Average temperature yesterday: 54 °F

Past Weeks' High & Low Weather Summary

 TemperatureHumidityPressure
High63 °F (Dec 4, 3:50 PM)100% (Dec 7, 5:20 AM)30.33 "Hg (Dec 7, 5:20 AM)
Low41 °F (Dec 14, 2:50 AM)55% (Dec 17, 12:20 PM)29.68 "Hg (Dec 9, 11:50 AM)
Average52 °F84%30.09 "Hg
* Reported Dec 4 2:20 PM — Dec 19 2:50 PM, Istanbul, Weather by CustomWeather, © 2014

Note: Actual official high and low records may vary slightly from our data, if they occured in-between our weather recording intervals... More about our weather records

Advertising

Istanbul weather history for previous 24 hours

 ConditionsComfort  
Time TempWeatherWind HumidityBarometerVisibility
2:50 PM
Dec 19
54 °FPassing clouds.6 mph72%30.21 "HgN/A
2:20 PM54 °FPassing clouds.5 mph72%30.21 "HgN/A
1:50 PM54 °FClear.6 mph72%30.21 "Hg5 mi
1:20 PM52 °FClear.6 mph82%30.21 "Hg4 mi
12:50 PM52 °FClear.6 mph72%30.21 "Hg4 mi
12:20 PM54 °FClear.6 mph67%30.21 "Hg4 mi
11:50 AM54 °FClear.3 mph67%30.21 "Hg4 mi
11:20 AM54 °FClear.3 mph67%30.21 "Hg4 mi
10:50 AM52 °FClear.3 mph72%30.24 "Hg4 mi
10:20 AM52 °FClear.2 mph72%30.24 "Hg4 mi
9:50 AM50 °FClear.5 mph76%30.24 "Hg4 mi
9:20 AM50 °FFog.6 mph71%30.24 "Hg3 mi
8:50 AM48 °FFog.6 mph76%30.21 "Hg3 mi
8:20 AM46 °FFog.8 mph82%30.21 "Hg3 mi
7:50 AM48 °FFog.9 mph82%30.21 "Hg3 mi
7:20 AM46 °FFog.9 mph87%30.21 "Hg3 mi
6:50 AM46 °FFog.6 mph87%30.18 "Hg3 mi
6:20 AM46 °FFog.10 mph87%30.18 "Hg3 mi
5:20 AM48 °FPassing clouds.6 mph82%30.18 "Hg4 mi
4:50 AM48 °FPassing clouds.6 mph87%30.18 "Hg4 mi
4:20 AM46 °FPassing clouds.9 mph93%30.18 "Hg4 mi
3:50 AM48 °FPassing clouds.6 mph87%30.15 "Hg4 mi
3:20 AM48 °FPassing clouds.7 mph87%30.15 "Hg4 mi
2:50 AM50 °FPartly cloudy.7 mph88%30.15 "Hg4 mi
2:20 AM50 °FPassing clouds.7 mph88%30.15 "Hg4 mi
1:50 AM50 °FPassing clouds.8 mph88%30.15 "Hg4 mi
1:20 AM48 °FPassing clouds.9 mph94%30.15 "Hg4 mi
12:50 AM50 °FPassing clouds.9 mph88%30.15 "Hg4 mi
12:20 AM52 °FPassing clouds.3 mph82%30.12 "Hg4 mi
11:50 PM
Dec 18
52 °FPassing clouds.2 mph82%30.12 "Hg4 mi
11:20 PM52 °FPassing clouds.No wind82%30.12 "Hg4 mi
10:50 PM52 °FPassing clouds.3 mph82%30.12 "Hg4 mi
10:20 PM52 °FPassing clouds.3 mph82%30.12 "Hg4 mi
9:50 PM52 °FPassing clouds.2 mph82%30.09 "Hg4 mi
9:20 PM54 °FPassing clouds.5 mph82%30.09 "Hg5 mi
8:50 PM52 °FPartly cloudy.2 mph88%30.09 "Hg5 mi
8:20 PM52 °FPassing clouds.2 mph82%30.09 "Hg5 mi
7:50 PM52 °FPassing clouds.3 mph82%30.07 "Hg5 mi
7:20 PM52 °FPassing clouds.5 mph82%30.07 "Hg5 mi
6:50 PM52 °FPassing clouds.2 mph82%30.04 "Hg5 mi
6:20 PM52 °FPassing clouds.2 mph82%30.07 "HgN/A
5:50 PM50 °FPassing clouds.5 mph88%30.04 "HgN/A
5:20 PM52 °FPassing clouds.3 mph82%30.04 "HgN/A
4:50 PM52 °FPassing clouds.9 mph82%30.04 "HgN/A
4:20 PM54 °FScattered clouds.9 mph77%30.01 "HgN/A
3:50 PM55 °FPassing clouds.12 mph72%30.01 "HgN/A
3:20 PM55 °FPassing clouds.10 mph72%30.01 "HgN/A
Weather by CustomWeather, © 2014

See weather overviewHow to use our weather pages